• Em Portugal
  • Lista de países
  • Para 7 dias
  • Temperatura da água
  • Mapas de satélite
  • Mapa do tempo
  • Widgets de tempo
  • user-avatar
    Iniciar Sessão

    Previsão horária em Podrabalina

    Hoje, 23 Outubro, Terça-feira

    Tempo Temperatura Precipitação Vento Pressão Humidade
    00:00 +4°C° 0 mm 3 m/s 748 mmHg 91%
    01:00 +4°C° 0 mm 3 m/s 748 mmHg 90%
    02:00 +3°C° 0 mm 3 m/s 748 mmHg 92%
    03:00 +3°C° 0 mm 3 m/s 747 mmHg 92%
    04:00 +3°C° 0 mm 4 m/s 746 mmHg 91%
    05:00 +4°C° 0 mm 4 m/s 746 mmHg 90%
    06:00 +3°C° 0 mm 5 m/s 745 mmHg 88%
    07:00 +3°C° 0 mm 6 m/s 744 mmHg 86%
    08:00 +3°C° 0 mm 6 m/s 743 mmHg 84%
    09:00 +3°C° 0.4 mm 7 m/s 741 mmHg 82%
    10:00 +4°C° 0.4 mm 8 m/s 740 mmHg 79%
    11:00 +3°C° 0.4 mm 9 m/s 738 mmHg 77%
    12:00 +3°C° 1.2 mm 9 m/s 736 mmHg 77%
    13:00 +3°C° 1.2 mm 9 m/s 735 mmHg 78%
    14:00 +3°C° 1.2 mm 10 m/s 733 mmHg 79%
    15:00 +3°C° 1 mm 9 m/s 732 mmHg 81%
    16:00 +5°C° 1 mm 9 m/s 730 mmHg 82%
    17:00 +5°C° 1 mm 9 m/s 729 mmHg 84%
    18:00 +5°C° 0.5 mm 8 m/s 728 mmHg 83%
    19:00 +6°C° 0.5 mm 7 m/s 727 mmHg 82%
    20:00 +7°C° 0.5 mm 6 m/s 726 mmHg 81%
    21:00 +5°C° 0.3 mm 6 m/s 726 mmHg 82%
    22:00 +5°C° 0.3 mm 6 m/s 726 mmHg 83%
    23:00 +5°C° 0.3 mm 6 m/s 726 mmHg 84%

    Amanhã, 24 Outubro, Quarta-feira

    Tempo Temperatura Precipitação Vento Pressão Humidade
    00:00 +5°C° 0.2 mm 5 m/s 726 mmHg 84%
    01:00 +5°C° 0.2 mm 5 m/s 726 mmHg 84%
    02:00 +4°C° 0.2 mm 4 m/s 726 mmHg 85%
    03:00 +4°C° 0.1 mm 4 m/s 726 mmHg 85%
    04:00 +4°C° 0.1 mm 4 m/s 726 mmHg 84%
    05:00 +2°C° 0.1 mm 5 m/s 726 mmHg 84%
    06:00 +2°C° 0.1 mm 5 m/s 726 mmHg 81%
    07:00 +2°C° 0.1 mm 6 m/s 726 mmHg 78%
    08:00 +2°C° 0.1 mm 7 m/s 726 mmHg 76%
    09:00 +2°C° 0.7 mm 9 m/s 727 mmHg 75%
    10:00 +2°C° 0.7 mm 10 m/s 727 mmHg 74%
    11:00 +3°C° 0.7 mm 12 m/s 727 mmHg 73%
    12:00 +3°C° 0.8 mm 12 m/s 727 mmHg 72%
    13:00 +4°C° 0.8 mm 12 m/s 727 mmHg 72%
    14:00 +4°C° 0.8 mm 12 m/s 728 mmHg 71%
    15:00 +4°C° 0.4 mm 12 m/s 729 mmHg 71%
    16:00 +4°C° 0.4 mm 11 m/s 730 mmHg 70%
    17:00 +4°C° 0.4 mm 11 m/s 731 mmHg 70%
    18:00 +3°C° 0.1 mm 11 m/s 732 mmHg 70%
    19:00 +3°C° 0.1 mm 10 m/s 733 mmHg 70%
    20:00 +3°C° 0.1 mm 10 m/s 734 mmHg 71%
    21:00 +3°C° 0 mm 9 m/s 735 mmHg 71%
    22:00 +2°C° 0 mm 8 m/s 736 mmHg 72%
    23:00 +2°C° 0 mm 8 m/s 736 mmHg 72%

    Depois de amanhã, 25 Outubro, Quinta-feira

    Tempo Temperatura Precipitação Vento Pressão Humidade
    00:00 +3°C° 0 mm 7 m/s 737 mmHg 75%
    01:00 +2°C° 0 mm 6 m/s 737 mmHg 77%
    02:00 +2°C° 0 mm 6 m/s 737 mmHg 80%
    03:00 +2°C° 0 mm 5 m/s 737 mmHg 82%
    04:00 +2°C° 0 mm 5 m/s 737 mmHg 84%
    05:00 +1°C° 0 mm 4 m/s 737 mmHg 85%
    06:00 +1°C° 0 mm 4 m/s 737 mmHg 85%
    07:00 +1°C° 0 mm 4 m/s 736 mmHg 84%
    08:00 +1°C° 0 mm 4 m/s 736 mmHg 84%
    09:00 +3°C° 0.2 mm 4 m/s 735 mmHg 81%
    10:00 +3°C° 0.2 mm 4 m/s 734 mmHg 79%
    11:00 +3°C° 0.2 mm 5 m/s 734 mmHg 77%
    12:00 +3°C° 1.2 mm 5 m/s 733 mmHg 79%
    13:00 +3°C° 1.2 mm 5 m/s 732 mmHg 82%
    14:00 +3°C° 1.2 mm 5 m/s 731 mmHg 85%
    15:00 +4°C° 0.3 mm 4 m/s 731 mmHg 85%
    16:00 +5°C° 0.3 mm 4 m/s 731 mmHg 85%
    17:00 +5°C° 0.3 mm 4 m/s 731 mmHg 85%
    18:00 +4°C° 0.1 mm 4 m/s 732 mmHg 87%
    19:00 +4°C° 0.1 mm 3 m/s 732 mmHg 90%
    20:00 +3°C° 0.1 mm 3 m/s 733 mmHg 92%
    21:00 +3°C° 0 mm 3 m/s 733 mmHg 92%
    22:00 +3°C° 0 mm 3 m/s 734 mmHg 93%
    23:00 +3°C° 0 mm 3 m/s 734 mmHg 93%

    26 Outubro, Sexta-feira

    Tempo Temperatura Precipitação Vento Pressão Humidade
    00:00 +3°C° 0 mm 3 m/s 734 mmHg 91%
    01:00 +3°C° 0 mm 4 m/s 735 mmHg 90%
    02:00 +3°C° 0 mm 5 m/s 735 mmHg 89%
    03:00 +3°C° 0 mm 5 m/s 735 mmHg 89%
    04:00 +2°C° 0 mm 5 m/s 735 mmHg 88%
    05:00 +2°C° 0 mm 5 m/s 736 mmHg 88%
    06:00 +2°C° 0 mm 5 m/s 736 mmHg 89%
    07:00 +3°C° 0 mm 4 m/s 737 mmHg 90%
    08:00 +2°C° 0 mm 3 m/s 737 mmHg 92%
    09:00 +4°C° 0 mm 4 m/s 738 mmHg 85%
    10:00 +5°C° 0 mm 4 m/s 738 mmHg 78%
    11:00 +6°C° 0 mm 4 m/s 738 mmHg 71%
    12:00 +7°C° 0 mm 4 m/s 738 mmHg 70%
    13:00 +7°C° 0 mm 4 m/s 738 mmHg 68%
    14:00 +8°C° 0 mm 4 m/s 738 mmHg 67%
    15:00 +7°C° 0.1 mm 4 m/s 738 mmHg 71%
    16:00 +8°C° 0.1 mm 3 m/s 738 mmHg 76%
    17:00 +7°C° 0.1 mm 3 m/s 738 mmHg 80%
    18:00 +7°C° 0 mm 3 m/s 738 mmHg 81%
    19:00 +5°C° 0 mm 4 m/s 737 mmHg 81%
    20:00 +5°C° 0 mm 4 m/s 737 mmHg 82%
    21:00 +5°C° 0.1 mm 5 m/s 737 mmHg 83%
    22:00 +5°C° 0.1 mm 6 m/s 736 mmHg 84%
    23:00 +5°C° 0.1 mm 6 m/s 736 mmHg 85%

    27 Outubro, Sábado

    Tempo Temperatura Precipitação Vento Pressão Humidade
    00:00 +5°C° 0.1 mm 6 m/s 735 mmHg 86%
    01:00 +7°C° 0.1 mm 6 m/s 735 mmHg 86%
    02:00 +7°C° 0.1 mm 6 m/s 735 mmHg 87%
    03:00 +7°C° 0.1 mm 6 m/s 734 mmHg 86%
    04:00 +6°C° 0.1 mm 7 m/s 734 mmHg 84%
    05:00 +6°C° 0.1 mm 7 m/s 733 mmHg 83%
    06:00 +6°C° 0.1 mm 7 m/s 733 mmHg 82%
    07:00 +6°C° 0.1 mm 7 m/s 733 mmHg 81%
    08:00 +5°C° 0.1 mm 7 m/s 733 mmHg 81%
    09:00 +6°C° 0.1 mm 8 m/s 733 mmHg 76%
    10:00 +6°C° 0.1 mm 8 m/s 733 mmHg 71%
    11:00 +7°C° 0.1 mm 9 m/s 733 mmHg 66%
    12:00 +7°C° 0 mm 9 m/s 733 mmHg 64%
    13:00 +7°C° 0 mm 9 m/s 734 mmHg 62%
    14:00 +7°C° 0 mm 9 m/s 734 mmHg 60%
    15:00 +6°C° 0 mm 8 m/s 734 mmHg 63%
    16:00 +5°C° 0 mm 8 m/s 735 mmHg 65%
    17:00 +5°C° 0 mm 7 m/s 736 mmHg 68%
    18:00 +5°C° 0 mm 5 m/s 737 mmHg 72%
    19:00 +4°C° 0 mm 4 m/s 737 mmHg 76%
    20:00 +3°C° 0 mm 3 m/s 738 mmHg 80%
    21:00 +3°C° 0 mm 3 m/s 739 mmHg 81%
    22:00 +3°C° 0 mm 2 m/s 740 mmHg 83%
    23:00 +3°C° 0 mm 2 m/s 740 mmHg 85%

    28 Outubro, Domingo

    Tempo Temperatura Precipitação Vento Pressão Humidade
    00:00 +3°C° 0 mm 1 m/s 741 mmHg 84%
    01:00 +3°C° 0 mm 1 m/s 741 mmHg 83%
    02:00 +3°C° 0 mm 1 m/s 742 mmHg 82%
    03:00 +3°C° 0 mm 1 m/s 742 mmHg 83%
    04:00 +3°C° 0 mm 1 m/s 742 mmHg 84%
    05:00 +2°C° 0 mm 2 m/s 743 mmHg 84%
    06:00 +2°C° 0 mm 2 m/s 743 mmHg 84%
    07:00 +1°C° 0 mm 2 m/s 743 mmHg 85%
    08:00 +1°C° 0 mm 2 m/s 744 mmHg 85%
    09:00 +2°C° 0 mm 2 m/s 744 mmHg 80%
    10:00 +2°C° 0 mm 3 m/s 745 mmHg 76%
    11:00 +3°C° 0 mm 3 m/s 745 mmHg 71%
    12:00 +3°C° 0 mm 3 m/s 745 mmHg 69%
    13:00 +4°C° 0 mm 3 m/s 745 mmHg 68%
    14:00 +4°C° 0 mm 3 m/s 745 mmHg 66%
    15:00 +4°C° 0 mm 3 m/s 745 mmHg 68%
    16:00 +3°C° 0 mm 3 m/s 745 mmHg 70%
    17:00 +3°C° 0 mm 3 m/s 745 mmHg 73%
    18:00 +3°C° 0.1 mm 4 m/s 745 mmHg 72%
    19:00 +1°C° 0.1 mm 4 m/s 746 mmHg 71%
    20:00 +1°C° 0.1 mm 4 m/s 746 mmHg 71%
    21:00 +1°C° 0.2 mm 5 m/s 745 mmHg 71%
    22:00 0°C° 0.2 mm 5 m/s 745 mmHg 71%
    23:00 -1°C° 0.2 mm 6 m/s 745 mmHg 71%

    29 Outubro, Segunda-feira

    Tempo Temperatura Precipitação Vento Pressão Humidade
    00:00 -1°C° 1 mm 7 m/s 744 mmHg 75%
    01:00 -2°C° 1 mm 7 m/s 744 mmHg 80%
    02:00 -2°C° 1 mm 8 m/s 744 mmHg 84%
    03:00 -2°C° 1.7 mm 8 m/s 743 mmHg 86%
    04:00 -3°C° 1.7 mm 9 m/s 742 mmHg 88%
    05:00 -4°C° 1.7 mm 9 m/s 742 mmHg 91%
    06:00 -4°C° 1.6 mm 9 m/s 741 mmHg 91%
    07:00 -4°C° 1.6 mm 9 m/s 740 mmHg 92%
    08:00 -4°C° 1.6 mm 9 m/s 740 mmHg 93%
    09:00 -4°C° 1.8 mm 9 m/s 739 mmHg 93%
    10:00 -2°C° 1.8 mm 8 m/s 739 mmHg 94%
    11:00 -2°C° 1.8 mm 8 m/s 738 mmHg 95%
    12:00 -2°C° 0.7 mm 8 m/s 738 mmHg 96%
    13:00 -2°C° 0.7 mm 7 m/s 737 mmHg 97%
    14:00 -2°C° 0.7 mm 7 m/s 737 mmHg 97%
    15:00 -1°C° 0.5 mm 7 m/s 736 mmHg 98%
    16:00 -1°C° 0.5 mm 6 m/s 736 mmHg 98%
    17:00 -1°C° 0.5 mm 6 m/s 735 mmHg 99%
    18:00 +1°C° 0.9 mm 6 m/s 735 mmHg 99%
    19:00 +2°C° 0.9 mm 6 m/s 734 mmHg 99%
    20:00 +2°C° 0.9 mm 5 m/s 734 mmHg 99%
    21:00 +3°C° 0.5 mm 5 m/s 734 mmHg 99%
    22:00 +3°C° 0.5 mm 5 m/s 734 mmHg 99%
    23:00 +4°C° 0.5 mm 4 m/s 733 mmHg 99%
    Mostrar mais